User: anonymous   Login
Location: Unspecified
(0.0000°N, 0.0000°E)
Time: 18:49:42
(UTC+00:00)
Language:

ANNA 1B - Orbit

View from above orbital plane
View from above orbital plane
View from above satellite
View from above satellite

Ground track
Ground track

The orbit data is extracted from the following two-line orbital elements,

1   446U 62060A   17145.36657694 -.00000129 +00000-0 -74194-5 0  9996
2   446 050.1427 077.3784 0070185 272.2188 245.1700 13.35258650661495
Epoch (UTC): 25 May 2017 08:47:52
Eccentricity: 0.0070185
inclination: 50.1427°
perigee height: 1074 km
apogee height: 1179 km
right ascension of ascending node: 77.3784°
argument of perigee: 272.2188°
revolutions per day: 13.35258650
mean anomaly at epoch: 245.1700°
orbit number at epoch: 66149

The dashed part of the orbit path shows where the satellite is in the earth's shadow,  

DLR